Showing default

COSMOS 198, 3081

Orbit data source: Space-Track

COSMOS 198, 3081 is a payload satellite owned by TSKBM (CIS) in LEO that was launched on Wed, 27 Dec 1967 UTC via a TSIKLON-2A launch vehicle from the Tyuratam Missile And Space Complex (TTMTR). Payload-class satellites include a variety of spacecraft equipped with specific instruments for various scientific and technological missions. These include communications satellites like Starlink; space stations such as the ISS; scientific satellites like the Hubble; Earth observation satellites from companies like Planet Labs, Umbra, and HawkEye 360; GPS; miniature CubeSats for education and research; and military/defense satellites.

Loading next visibility...
Identifier
3081, 1967-127A
Orbit
LEO
Last TLE update
22 hours ago
Origin
Manufacturer
TSKBM/KB1
Mission
Defense Sigint
Bus & Motor
US-A ROCH, Unknown motor
Mass
3,800 kg wet, 1,140 kg dry
Launch date (UTC)
1967-12-27 (58 years ago)
Launch vehicle
TSIKLON-2A
Launch site
Tyuratam Missile And Space Complex (TTMTR)
Object type
Payload
Rocket body
Debris
Shape & HBR
Cyl + Cone, 2.9 m
Radar Cross Section
6.586 m², Large (>1 m²)

Expand to show TLE details & history

TLE from 22 hours ago
0 COSMOS 198
1 03081U 67127A   25199.05410000 -.00000074  00000-0  11933-4 0  9994
2 03081  65.1430  75.9781 0035634 223.3289 136.4975 13.93366710927024
Epoch: 2025-07-18T01:17Z
TLE epoch observation values (Epoch: 2025-07-18T01:17:54.239Z)
Latitude
0.00001°
Longitude
120.39104°
Altitude
937.706 km
Speed
7.374 km/s
True Right ascension
05h 03m 54s
True Declination
0° 00' 00"
Sunlit
Object was in daylight at epoch
Visualization orbit readout
Latitude
-10.64602°
Longitude
112.98687°
Altitude
935.814 km
Speed
7.376 km/s
Apparent Right ascension
02h 56m 04s
Apparent Declination
-27° 27' 14"
Sunlit
Object is in daylight
Visualization observer readout
Local Sidereal Time
12:25:46
Azimuth
280.232° WNW
Elevation
-56.642°
Doppler factor
1
Orbital elements
Apogee altitude
941.432 km
Perigee altitude
889.452 km
Semi-major axis
7,293.579 km
Eccentricity
0.00356
Inclination
65.143°
RAAN
75.9781°
Arg. of periapsis
223.3289°
True anomaly
136.77769°
Mean anomaly
136.4975°
Eccentric anomaly
136.63768°
Mean motion
3.48443 °/min
Orbital period
103.32 mins
BSTAR
0.000011933
Loading maneuver chart data...
Loading SW <> Apogee altitude chart data...
Loading historical data...
Loading historical data...
Loading historical data...
Loading historical data...
Loading historical data...
Loading historical data...
Loading historical data...
Other satellites on launch #127 in the year 1967 (1967-12-27 UTC)
|